Regional Weather Roundup
Issued by NWS

Home | Current Version | Previous Version | Text Only | Print | Product List | Glossary On
Versions: 1 2 3 4 5 6 7 8 9 10 11 12 13 14 15 16 17 18 19 20 21 22 23 24 25 26 27 28 29 30 31 32 33 34 35 36 37 38 39 40 41 42 43 44 45 46 47 48 49 50
165
ASUS44 KFWD 232115
RWRTX
NORTH TEXAS HOURLY WEATHER ROUNDUP
NATIONAL WEATHER SERVICE FORT WORTH TX
400 PM CDT MON OCT 23 2017

NOTE: "FAIR" INDICATES FEW OR NO CLOUDS BELOW 12,000 FEET WITH NO
SIGNIFICANT WEATHER AND/OR OBSTRUCTIONS TO VISIBILITY.

TXZ118-119-232200-
DALLAS/FORT WORTH METROPLEX

CITY           SKY/WX    TMP DP  RH WIND       PRES   REMARKS
DFW AIRPORT    PTSUNNY   84  42  22 NW12      30.04F
DALLAS LOVE    MOSUNNY   82  42  24 W8        30.05F
FTW MEACHAM    SUNNY     83  48  29 NW12      30.05F
DAL-EXECUTIVE  SUNNY     81  45  28 W6        30.05F
FTW-ALLIANCE   PTSUNNY   82  45  27 NW10      30.06F
FTW-SPINKS     SUNNY     82  43  24 W7        30.07F
ARLINGTON      SUNNY     81  44  27 VRB5      30.05F
GRAND PRAIRIE  SUNNY     81  41  24 W6        30.07F
ADDISON        SUNNY     81  39  22 W9        30.06F
MESQUITE       SUNNY     81  39  22 W10       30.05F
LANCASTER      SUNNY     80  43  26 W8        30.06F
$$

TXZ091>094-102>105-117-120-121-131>134-232200-
NORTH CENTRAL TEXAS

CITY           SKY/WX    TMP DP  RH WIND       PRES   REMARKS
SHRMAN/DENISON CLOUDY    80  46  30 W13       30.05F
GAINESVILLE    SUNNY     78  44  30 W10       30.07F
BOWIE          SUNNY     78  47  33 NW6       30.07F
BRIDGEPORT     SUNNY     79  47  32 NW5       30.09S
DECATUR        SUNNY     78  47  33 W7        30.06F
DENTON         SUNNY     82  48  30 W13       30.05F
MCKINNEY       SUNNY     80  42  25 W12       30.05F
BONHAM         SUNNY    N/A N/A N/A W10G20    30.03F
GREENVILLE     SUNNY     81  37  21 W13       30.06S
ROCKWALL       SUNNY     80  44  27 NW8G20    30.06S
TERRELL        SUNNY     81  39  22 W10       30.05F
WAXAHACHIE     SUNNY     81  47  29 W3        30.08S
CLEBURNE       SUNNY     81  46  30 N5        30.08S HAZE
GRANBURY       SUNNY     85  46  25 N5        30.07S
$$

TXZ083>090-098>101-113>116-127>130-139>142-154-155-232200-
WESTERN NORTH TEXAS

CITY           SKY/WX    TMP DP  RH WIND       PRES   REMARKS
WICHITA FALLS  SUNNY     74  46  36 N12G21    30.09R
WF-KICKAPOO    CLOUDY    77  45  31 N12       30.11S
VERNON           N/A     75  37  25 N9G17     30.13S
ABILENE        SUNNY     81  46  29 N14       30.10R
ABILENE-DYESS  SUNNY     81  47  29 N8        30.09R
GRAHAM         SUNNY     80  47  31 N3        30.07S
BRECKENRIDGE   SUNNY     83  45  26 NE3       30.08S HAZE
CISCO          SUNNY     81  45  28 N8        30.10R
EASTLAND       SUNNY     82  47  29 W7        30.08S
RANGER         SUNNY     81  47  30 N5        30.08S
MINERAL WELLS  SUNNY     83  46  27 N8        30.05F
STEPHENVILLE   SUNNY     82  43  25 NW6       30.11R
COMANCHE       SUNNY     82  49  31 SE5       30.07F
BROWNWOOD      SUNNY     84  43  23 SW5       30.07R
COLEMAN        SUNNY     84  42  22 W3        30.08S
$$

TXZ143>147-156>162-174-175-232200-
CENTRAL TEXAS

CITY           SKY/WX    TMP DP  RH WIND       PRES   REMARKS
WACO           SUNNY     81  43  26 S7        30.05F
WACO-MCGREGOR  SUNNY     81  48  31 SW6       30.06F
HILLSBORO      SUNNY     81  44  27 W7        30.07R
MEXIA          SUNNY     79  42  26 W7        30.06S
HEARNE         SUNNY     79  46  30 SE3       30.07F
CAMERON        SUNNY     81  44  27 S7        30.06F
TEMPLE         SUNNY     82  47  29 SW10      30.06F
KILLEEN        SUNNY     80  46  30 S7        30.05F
KILLEEN-SKYLRK SUNNY     81  47  30 S8        30.06F
FORT HOOD      SUNNY     81  44  27 S6        30.03F
GATESVILLE     SUNNY     81  46  30 S8        30.07F
HAMILTON       SUNNY     82  48  30 W9        30.08F
LAMPASAS       SUNNY     79  51  37 S6        30.06F
$$

TXZ095>097-106>112-122>126-135>138-148>153-164>167-232200-
EAST TEXAS

CITY           SKY/WX    TMP DP  RH WIND       PRES   REMARKS
PARIS          SUNNY     77  44  30 W13       30.03F
SULPHUR SPRNGS SUNNY     79  41  25 W12G17    30.06S
MOUNT PLEASANT SUNNY     77  46  32 SW10      30.06S
GILMER         SUNNY     77  43  29 SW6       30.04F
MINEOLA        SUNNY     79  43  27 SW8       30.05F
TYLER          SUNNY     78  39  24 SW9       30.05F
LONGVIEW       SUNNY     80  42  25 W8        30.04F
MARSHALL       SUNNY     76  35  22 W8        30.06S
ATHENS           N/A    N/A N/A N/A MISG        N/A
PALESTINE        N/A     87  53  31 S3        30.07F
JACKSONVILLE   SUNNY     77  40  26 W5        30.08F
HENDERSON      SUNNY     78  41  26 W7        30.07F
CENTER         CLEAR     81  43  25 CALM      30.06F
NACOGDOCHES    SUNNY     78  43  28 W5        30.06F
LUFKIN         SUNNY     76  48  37 SW3       30.06F
$$

SUPPLEMENTAL OBSERVATIONS (NWS FORT WORTH AREA)

CITY           SKY/WX    TMP DP  RH WIND       PRES   REMARKS
DENISON DAM      N/A     77  50  38 W23         N/A
CADDO GRASSLND   N/A     79  45  29 W6G17       N/A
PAT MAYSE LAKE   N/A     75  37  25 SW14        N/A
GREENVILLE       N/A     81  41  24 W10         N/A
CEDAR HILL       N/A     82  43  24 W3          N/A
LBJ GRASSLAND    N/A     81  46  30 W6          N/A
POSSUM KINGDOM   N/A     82  46  28 N8          N/A
GRANBURY         N/A     84  45  24 N7          N/A
MCGREGOR         N/A     81  45  28 S7          N/A
TEMPLE           N/A     81  45  28 S8          N/A
ATHENS           N/A     81  41  24 W2          N/A
$$

SUPPLEMENTAL OBSERVATIONS (NWS NORMAN AREA)

CITY           SKY/WX    TMP DP  RH WIND       PRES   REMARKS
GOODLETT         N/A     77  38  25 N17       30.15R
CROWELL          N/A     76  43  30 NE17      30.15R
KNOX CITY        N/A     78  40  25 NE14      30.13R
SEYMOUR          N/A     75  44  32 N14       30.12S
MILLERS CREEK    N/A     77  43  29 N12         N/A
$$

SUPPLEMENTAL OBSERVATIONS (NWS SAN ANGELO AREA)

CITY           SKY/WX    TMP DP  RH WIND       PRES   REMARKS
WEINERT          N/A     78  43  28 NE13      30.12R
HASKELL          N/A     79  37  21 NE15      30.12R
THROCKMORTON     N/A     77  46  32 NE8       30.11S
STAMFORD         N/A     80  42  26 N10       30.11S
CLYDE            N/A     80  48  32 N9        30.12S
HAMBY            N/A     82  45  26 N8          N/A
IVIE RESERVOIR   N/A     84  41  21 N7          N/A
COLORADO BEND    N/A     84  45  24 S6          N/A
$$

SUPPLEMENTAL OBSERVATIONS (NWS SHREVEPORT AREA)

CITY           SKY/WX    TMP DP  RH WIND       PRES   REMARKS
CLARKSVILLE      N/A     79  43  27 SW1         N/A
CADDO LAKE       N/A     82  39  21 W3          N/A
GILMER           N/A     79  41  25 W12         N/A
HENDERSON        N/A     81  39  22 W8          N/A
LUFKIN           N/A     79  43  27 MISG        N/A
S SABINE NF      N/A     77  46  33 NE3         N/A
$$

SUPPLEMENTAL OBSERVATIONS ARE A COLLECTION OF AUTOMATED INSTRUMENTS
THAT ARE MAINTAINED BY A VARIETY OF FEDERAL AND STATE AGENCIES.
CERTAIN ELEMENTS...SUCH AS HUMIDITY VALUES AND SUSTAINED WIND
SPEEDS...MAY BE APPROXIMATED.





USA.gov is the U.S. government's official web portal to all federal, state and local government web resources and services.